Retour au catalogue

NOAA 16 DEB

ActifSSO
NORAD 42372·DEBRIS·🇺🇸 United States

Lancé Sep 21, 2000 depuis Vandenberg Space Force Base

Loading…

Prochains Passages (prochaines 24 heures)

TLE

FraisSource: Space-Track

Époque: Sep 13, 2026, 03:31 UTC

1 42372U 00055RQ  26256.14664329  .00003038  00000-0  10803-2 0  9992
2 42372  98.8796  22.4260 0010967  84.6884 275.5552 14.35088015539995

Suivez NOAA 16 DEB en temps réel avec AllMySat

Download on the App Store